Flag for Germany Weather past 2 weeks in Kassel, Hesse, Germany

Now
81 °F

Passing clouds.


Feels Like: 81 °F
Forecast: 56 / 80 °F
Wind: 8 mph from East

Location: Kassel / Calden

Current Time: Jul 23, 2014 at 3:59:56 PM

Latest Report: Jul 23, 2014 at 3:20 PM


Visibility: N/A

Pressure: 30.07 "Hg

Humidity: 42%

Dew point: 55 °F

Location of KasselLocation

Historic Weather in Kassel — Graph

°F

Kassel temperature yesterday

Maximum temperature yesterday: 79 °F (at 3:50 PM)
Minimum temperature yesterday: 63 °F (at 5:50 AM)
Average temperature yesterday: 72 °F

Past Weeks' High & Low Weather Summary

 TemperatureHumidityPressure
High90 °F (Jul 19, 4:50 PM)100% (Jul 8, 4:50 PM)30.21 "Hg (Jul 8, 4:50 PM)
Low52 °F (Jul 9, 6:50 AM)31% (Jul 19, 1:20 PM)29.65 "Hg (Jul 9, 7:50 AM)
Average70 °F71%29.95 "Hg
* Reported Jul 8 1:20 PM — Jul 23 1:20 PM, Kassel, Weather by CustomWeather, © 2014

Note: Actual official high and low records may vary slightly from our data, if they occured in-between our weather recording intervals... More about our weather records

Advertising

Kassel weather history for previous 24 hours

 ConditionsComfort  
Time TempWeatherWind HumidityBarometerVisibility
1:20 PM
Jul 23
81 °FPassing clouds.10 mph48%30.09 "HgN/A
12:20 PM77 °FPassing clouds.9 mph51%30.09 "HgN/A
11:50 AM77 °FPassing clouds.6 mph54%30.09 "HgN/A
11:20 AM75 °FPassing clouds.7 mph61%30.09 "HgN/A
10:50 AM73 °FPassing clouds.7 mph65%30.09 "HgN/A
10:20 AM72 °FPassing clouds.6 mph69%30.12 "HgN/A
7:50 AM64 °FSunny.7 mph83%30.12 "Hg10 mi
7:20 AM64 °FSunny.6 mph83%30.12 "Hg10 mi
6:50 AM63 °FSunny.6 mph88%30.09 "Hg10 mi
6:20 AM63 °FClear.6 mph83%30.09 "Hg10 mi
5:50 AM61 °FClear.6 mph88%30.09 "Hg10 mi
6:50 PM
Jul 22
79 °FPassing clouds.14 mph54%30.04 "HgN/A
6:20 PM79 °FPassing clouds.10 mph58%30.04 "HgN/A
5:50 PM79 °FPassing clouds.12 mph58%30.04 "HgN/A
5:20 PM79 °FPassing clouds.12 mph58%30.04 "HgN/A
4:50 PM79 °FPassing clouds.10 mph58%30.04 "HgN/A
4:20 PM79 °FPassing clouds.12 mph61%30.04 "HgN/A
3:50 PM79 °FSunny.12 mph58%30.04 "Hg10 mi
3:20 PM77 °FSunny.13 mph65%30.04 "Hg10 mi
Weather by CustomWeather, © 2014

See weather overviewHow to use our weather pages